TimePDT,TemperatureF,Dew PointF,Humidity,Sea Level PressureIn,VisibilityMPH,Wind Direction,Wind SpeedMPH,Gust SpeedMPH,PrecipitationIn,Events,Conditions,WindDirDegrees,DateUTC
12:58 AM,58.6,55.6,90,30.10,10.0,SE,3.5,-,N/A,,Clear,140,2013-07-09 07:58:00
1:58 AM,57.4,55.9,95,30.10,10.0,SE,3.5,-,N/A,,Clear,140,2013-07-09 08:58:00
2:58 AM,56.8,55.4,95,30.10,10.0,SE,4.6,-,N/A,,Clear,140,2013-07-09 09:58:00
3:58 AM,54.7,54.0,97,30.10,10.0,SSE,3.5,-,N/A,,Clear,150,2013-07-09 10:58:00
4:58 AM,52.7,52.2,98,30.10,10.0,SE,5.8,-,N/A,,Clear,140,2013-07-09 11:58:00
5:13 AM,53.6,51.8,94,30.09,2.5,SSE,4.6,-,N/A,,Clear,150,2013-07-09 12:13:00
5:18 AM,53.6,51.8,94,30.09,3.0,SSE,4.6,-,N/A,,Clear,150,2013-07-09 12:18:00
5:48 AM,51.8,51.8,100,30.09,2.0,SE,4.6,-,N/A,,Clear,140,2013-07-09 12:48:00
5:53 AM,51.8,51.8,100,30.09,4.0,SE,4.6,-,N/A,,Clear,130,2013-07-09 12:53:00
5:58 AM,52.7,52.5,99,30.10,9.0,SE,4.6,-,N/A,,Clear,140,2013-07-09 12:58:00
6:58 AM,55.6,55.2,99,30.11,10.0,SSE,3.5,-,N/A,,Clear,150,2013-07-09 13:58:00
7:58 AM,60.4,57.4,90,30.12,10.0,Variable,1.2,-,N/A,,Clear,0,2013-07-09 14:58:00
8:58 AM,64.9,57.4,76,30.13,10.0,NNW,1.2,-,N/A,,Clear,340,2013-07-09 15:58:00
9:58 AM,70.7,57.7,63,30.12,10.0,Variable,1.2,-,N/A,,Clear,0,2013-07-09 16:58:00
10:58 AM,74.3,57.4,55,30.11,10.0,Variable,5.8,-,N/A,,Clear,0,2013-07-09 17:58:00
11:58 AM,76.8,57.0,50,30.10,10.0,NW,8.1,-,N/A,,Clear,320,2013-07-09 18:58:00
12:58 PM,79.7,55.4,43,30.09,10.0,WNW,5.8,-,N/A,,Clear,290,2013-07-09 19:58:00
1:58 PM,81.3,54.9,40,30.08,10.0,NW,5.8,-,N/A,,Clear,310,2013-07-09 20:58:00
2:58 PM,83.1,55.9,39,30.07,10.0,Variable,4.6,-,N/A,,Clear,0,2013-07-09 21:58:00
3:16 PM,84.2,57.2,40,30.05,10.0,NW,12.7,19.6,N/A,,Clear,320,2013-07-09 22:16:00
3:58 PM,84.0,57.6,40,30.06,10.0,NW,8.1,-,N/A,,Clear,310,2013-07-09 22:58:00
4:58 PM,84.9,57.2,39,30.04,10.0,WNW,8.1,-,N/A,,Clear,290,2013-07-09 23:58:00
5:58 PM,85.3,57.7,39,30.03,10.0,NW,8.1,-,N/A,,Clear,320,2013-07-10 00:58:00
6:58 PM,84.2,58.3,41,30.01,10.0,NNW,6.9,-,N/A,,Clear,340,2013-07-10 01:58:00
7:58 PM,81.0,57.2,44,30.01,10.0,West,12.7,-,N/A,,Clear,280,2013-07-10 02:58:00
8:58 PM,74.8,58.8,57,30.02,10.0,West,9.2,-,N/A,,Clear,270,2013-07-10 03:58:00
9:58 PM,70.5,56.8,62,30.03,10.0,West,8.1,-,N/A,,Clear,280,2013-07-10 04:58:00
10:58 PM,66.7,54.5,65,30.05,10.0,Variable,5.8,-,N/A,,Clear,0,2013-07-10 05:58:00
11:58 PM,63.9,54.0,70,30.05,10.0,West,4.6,-,N/A,,Clear,280,2013-07-10 06:58:00